カタログに戻る

FENGYUN 1C DEB

運用中SSO
NORAD 31838·DEBRIS·🇨🇳 China

打ち上げ May 10, 1999 から Taiyuan Satellite Launch Center

Loading…

次のパス (今後24時間)

TLE

経年Source: Space-Track

元期: Sep 8, 2026, 08:35 UTC

1 31838U 99025CJC 26251.35820925  .00000764  00000-0  36407-3 0  9998
2 31838  98.6942 303.2977 0037850  37.8635  21.7128 14.21802504684072

AllMySatでFENGYUN 1C DEBをリアルタイム追跡

Download on the App Store